Location: Bucharest
(44.4268°N, 26.1025°E)
Time: 02:30:03
(UTC+02:00)

Tiangong - Visible Passes

Search period start: 27 January 2022 00:00
Search period end: 06 February 2022 00:00
Orbit: 382 x 387 km, 41.5° (Epoch: 26 January)

Date Brightness Start Highest point End Pass type
(mag) Time Alt. Az. Time Alt. Az. Time Alt. Az.
27 Jan 3.1 18:50:31 10° SSW 18:52:38 17° SSE 18:52:38 17° SSE visible
28 Jan 3.7 17:52:19 10° SSE 17:53:06 11° SSE 17:53:53 10° SE visible
28 Jan 3.1 19:26:28 10° SW 19:28:05 23° SSW 19:28:05 23° SSW visible
29 Jan 2.7 18:27:03 10° SW 18:29:41 24° SSE 18:31:13 17° ESE visible
29 Jan 4.4 20:03:06 10° WSW 20:03:26 12° WSW 20:03:26 12° WSW visible
30 Jan 1.8 19:03:24 10° WSW 19:06:26 41° S 19:06:32 41° SSE visible
31 Jan 2.3 18:03:47 10° SW 18:06:41 33° SSE 18:09:35 10° E visible
31 Jan 3.2 19:40:10 10° WSW 19:41:47 26° WSW 19:41:47 26° WSW visible
01 Feb 1.7 18:40:22 10° WSW 18:43:27 48° S 18:44:49 27° ESE visible
02 Feb 1.9 19:17:09 10° W 19:20:02 44° SSW 19:20:02 44° SSW visible
03 Feb 1.8 18:17:16 10° WSW 18:20:20 49° S 18:23:05 12° ESE visible
03 Feb 3.8 19:54:06 10° W 19:55:17 18° WSW 19:55:17 18° WSW visible
04 Feb 2.3 18:54:05 10° W 18:57:02 36° SSW 18:58:21 24° SE visible
05 Feb 3.3 19:31:12 10° WSW 19:33:34 19° SSW 19:33:41 19° SSW visible
